[[{"header":{"parameterUnit":"m.s-1","parameterCategory":1,"la1":30.2991,"la2":30.254,"lo1":-89.0895,"lo2":-89.0444,"dy":0.0017,"dx":0.0017,"nx":28,"ny":28,"refTime":"2024-12-16T09:00:00:Z","depth":0,"parameterNumber":2,"parameterNumberName":"U-component_of_WINDS"},"data":[0,0,0,0,0,0,0,0,0,0,0,0,0,0,0,0,0,0,0,0,0,0,0,0,0,0,0,0,0,0,0,0,0,0,0,0,0,0,0,0,0,0,0,0,0,0,0,0,0,0,0,0,0,0,0,0,0,0,-1.0303,-1.0303,0,-1.029,-1.029,-1.029,-1.0286,-1.0286,-1.0286,-1.0286,-1.0273,-1.0272,-1.0272,0,0,0,0,0,0,0,0,0,0,0,0,0,-1.0326,-1.0326,-1.0303,-1.0303,-1.0303,-1.029,-1.029,-1.029,-1.0286,-1.0286,-1.0286,-1.0286,-1.0273,-1.0273,-1.0272,0,0,0,0,0,0,0,0,0,0,0,0,0,-1.0315,-1.0325,-1.0303,-1.0299,-1.0299,-1.0291,-1.029,-1.029,-1.0286,-1.0286,-1.0286,-1.0286,-1.0273,-1.0273,-1.0272,-1.0267,0,0,-1.027,-1.027,0,0,0,0,0,0,0,0,-1.0316,-1.0314,-1.03,-1.03,-1.0299,-1.029,-1.0293,-1.0282,-1.0286,-1.0291,-1.0286,-1.0286,-1.0278,-1.0277,-1.0275,-1.0266,-1.0266,-1.027,-1.027,-1.027,-1.0269,0,0,0,0,0,0,0,-1.0316,-1.0315,-1.0298,-1.03,-1.0299,-1.0299,-1.0297,-1.0291,-1.0284,-1.029,-1.029,-1.0288,-1.0278,-1.0275,-1.0275,-1.0265,-1.027,-1.027,-1.0269,-1.0269,-1.0255,-1.0255,0,0,0,0,0,0,-1.0318,-1.0315,-1.0299,-1.0298,-1.0308,-1.0298,-1.0297,-1.0293,-1.0284,-1.0283,-1.0288,-1.0288,-1.0276,-1.0275,-1.0274,-1.0269,-1.027,-1.0269,-1.0269,-1.0255,-1.0255,-1.0255,0,0,0,0,0,0,-1.0318,-1.0316,-1.0299,-1.0307,-1.0304,-1.0298,-1.0293,-1.0292,-1.029,-1.0283,-1.0282,-1.0287,-1.0276,-1.0275,-1.0269,-1.0269,-1.0269,-1.0268,-1.0255,-1.0255,-1.0255,-1.0258,0,0,0,0,0,0,-1.0319,-1.0316,-1.0314,-1.0306,-1.0304,-1.0294,-1.0293,-1.0292,-1.0289,-1.0288,-1.0281,-1.028,-1.0276,-1.027,-1.0269,-1.0268,-1.0268,-1.0255,-1.0255,-1.0255,-1.0258,-1.0258,-1.0258,0,0,0,0,0,-1.032,-1.0315,-1.0314,-1.0312,-1.03,-1.0294,-1.0292,-1.0288,-1.0288,-1.0286,-1.0283,-1.028,-1.0269,-1.027,-1.0268,-1.0267,-1.0255,-1.0255,-1.0255,-1.0258,-1.0258,-1.0258,0,0,0,0,0,0,-1.0321,-1.0313,-1.0312,-1.0305,-1.03,-1.0293,-1.029,-1.0288,-1.0283,-1.0283,-1.0279,-1.0277,-1.0272,-1.0269,-1.027,-1.0263,-1.0262,-1.0262,-1.0265,-1.0265,-1.0265,-1.0266,-1.0267,0,0,0,0,0,-1.0321,-1.0316,-1.0309,-1.0304,-1.0301,-1.0296,-1.0293,-1.0291,-1.0286,-1.0284,-1.0279,-1.0275,-1.027,-1.0267,-1.0263,-1.0258,-1.0257,-1.0256,-1.0257,-1.0257,-1.0256,-1.0256,-1.0256,-1.0255,-1.0255,-1.0255,0,0,-1.032,-1.0315,-1.0312,-1.0304,-1.03,-1.0296,-1.0294,-1.0289,-1.0287,-1.0283,-1.0278,-1.0275,-1.0269,-1.0265,-1.0262,-1.0262,-1.0257,-1.0257,-1.0257,-1.0256,-1.0256,-1.0256,-1.0256,-1.0255,-1.0255,-1.0255,0,0,-1.0316,-1.0311,-1.0306,-1.0303,-1.0298,-1.0295,-1.0294,-1.0288,-1.0286,-1.028,-1.0278,-1.0275,-1.0267,-1.0264,-1.0262,-1.026,-1.0258,-1.0258,-1.0259,-1.0258,-1.0258,-1.0259,-1.0259,-1.0259,-1.0258,-1.0258,-1.0258,0,-1.0315,-1.0308,-1.0304,-1.03,-1.0297,-1.0295,-1.0291,-1.0288,-1.0281,-1.028,-1.0279,-1.0271,-1.0267,-1.0263,-1.0262,-1.026,-1.026,-1.0259,-1.0259,-1.0259,-1.0259,-1.0259,-1.026,-1.0258,-1.0258,-1.0258,-1.0258,0,-1.0308,-1.0304,-1.0301,-1.0296,-1.0292,-1.0288,-1.0285,-1.0283,-1.0281,-1.0279,-1.0275,-1.027,-1.0266,-1.0265,-1.0262,-1.0261,-1.0261,-1.0259,-1.0259,-1.0259,-1.026,-1.026,-1.0258,-1.0258,-1.0258,-1.0258,0,0,-1.0303,-1.0298,-1.0297,-1.0295,-1.029,-1.0287,-1.0284,-1.028,-1.0279,-1.0275,-1.0273,-1.0267,-1.0267,-1.0264,-1.0262,-1.0262,-1.0263,-1.0261,-1.0261,-1.0262,-1.0262,-1.0264,-1.0264,-1.0262,-1.0262,-1.0262,-1.0263,0,-1.03,-1.0293,-1.0291,-1.0286,-1.0283,-1.0282,-1.0279,-1.0277,-1.0275,-1.0273,-1.0271,-1.0268,-1.0267,-1.0265,-1.0265,-1.0262,-1.0263,-1.0262,-1.0261,-1.0261,-1.0263,-1.0264,-1.0265,-1.0266,-1.0263,-1.0263,-1.0263,0,-1.0294,-1.0291,-1.0286,-1.0284,-1.0282,-1.028,-1.0277,-1.0275,-1.0273,-1.0271,-1.027,-1.0268,-1.0266,-1.0266,-1.0264,-1.0264,-1.0264,-1.0263,-1.0263,-1.0263,-1.0262,-1.0265,-1.0267,-1.0267,-1.0263,-1.0263,-1.0263,0,-1.0292,-1.0287,-1.0284,-1.0283,-1.0279,-1.0278,-1.0277,-1.0275,-1.0273,-1.0271,-1.0271,-1.0269,-1.0268,-1.0266,-1.0265,-1.0265,-1.0264,-1.0263,-1.0264,-1.0264,-1.0264,-1.0264,-1.0267,-1.0263,-1.0263,-1.0263,-1.0263,0,-1.0288,-1.0286,-1.0284,-1.0282,-1.028,-1.0278,-1.0276,-1.0275,-1.0273,-1.0272,-1.0271,-1.027,-1.0268,-1.0267,-1.0266,-1.0266,-1.0265,-1.0265,-1.0265,-1.0265,-1.0265,-1.0265,-1.0265,-1.0263,-1.0263,-1.0263,-1.0263,0,-1.0286,-1.0285,-1.0282,-1.0279,-1.0279,-1.0278,-1.0276,-1.0275,-1.0274,-1.0273,-1.0272,-1.0271,-1.027,-1.0269,-1.0267,-1.0267,-1.0267,-1.0266,-1.0268,-1.0268,-1.027,-1.027,-1.0272,-1.0273,-1.0268,-1.0268,-1.0268,0,-1.0284,-1.0282,-1.0281,-1.028,-1.0279,-1.0277,-1.0277,-1.0275,-1.0275,-1.0273,-1.0273,-1.0272,-1.0271,-1.0271,-1.027,-1.027,-1.0269,-1.027,-1.0269,-1.0271,-1.0271,-1.0271,-1.0272,-1.0271,-1.0271,-1.0271,-1.0271,0,-1.0281,-1.0281,-1.0279,-1.0279,-1.0278,-1.0277,-1.0276,-1.0276,-1.0274,-1.0274,-1.0274,-1.0273,-1.0273,-1.0273,-1.0273,-1.0272,-1.0272,-1.0271,-1.0272,-1.0273,-1.0274,-1.0275,-1.027,-1.0271,-1.0271,-1.0271,-1.0271,-1.0271,-1.0279,-1.0279,-1.0278,-1.0277,-1.0277,-1.0276,-1.0276,-1.0276,-1.0275,-1.0275,-1.0275,-1.0275,-1.0275,-1.0275,-1.0275,-1.0276,-1.0275,-1.0275,-1.0276,-1.0276,-1.0277,-1.0274,-1.0275,-1.0275,-1.0275,-1.0275,-1.0275,0,-1.0277,-1.0277,-1.0277,-1.0276,-1.0276,-1.0276,-1.0276,-1.0276,-1.0276,-1.0276,-1.0276,-1.0277,-1.0277,-1.0278,-1.0278,-1.0279,-1.0279,-1.028,-1.028,-1.028,-1.0276,-1.0277,-1.028,-1.028,-1.028,-1.028,-1.028,-1.028,-1.0276,-1.0275,-1.0276,-1.0276,-1.0276,-1.0276,-1.0276,-1.0277,-1.0277,-1.0278,-1.0279,-1.0279,-1.028,-1.0281,-1.0282,-1.0282,-1.0283,-1.0284,-1.0284,-1.0281,-1.028,-1.028,-1.028,-1.0284,-1.0284,-1.0288,-1.0288,-1.0288]},{"header":{"parameterUnit":"m.s-1","parameterCategory":1,"la1":30.2991,"la2":30.254,"lo1":-89.0895,"lo2":-89.0444,"dy":0.0017,"dx":0.0017,"nx":28,"ny":28,"refTime":"2024-12-16T09:00:00:Z","depth":0,"parameterNumber":3,"parameterNumberName":"V-component_of_WINDS"},"data":[0,0,0,0,0,0,0,0,0,0,0,0,0,0,0,0,0,0,0,0,0,0,0,0,0,0,0,0,0,0,0,0,0,0,0,0,0,0,0,0,0,0,0,0,0,0,0,0,0,0,0,0,0,0,0,0,0,0,0.2351,0.2351,0,0.2372,0.2372,0.2373,0.2436,0.2437,0.2439,0.244,0.2458,0.2457,0.2456,0,0,0,0,0,0,0,0,0,0,0,0,0,0.2361,0.236,0.2351,0.2351,0.2351,0.2372,0.2372,0.2373,0.2436,0.2437,0.2439,0.2441,0.2458,0.2457,0.2456,0,0,0,0,0,0,0,0,0,0,0,0,0,0.2367,0.236,0.2351,0.2385,0.2389,0.2372,0.2372,0.2373,0.2435,0.2437,0.244,0.2441,0.2458,0.2457,0.2456,0.2406,0,0,0.2452,0.2451,0,0,0,0,0,0,0,0,0.2366,0.2366,0.238,0.2383,0.2387,0.2404,0.2383,0.2384,0.2435,0.2417,0.244,0.2442,0.2438,0.2438,0.2438,0.2407,0.2408,0.2452,0.2451,0.2451,0.245,0,0,0,0,0,0,0,0.2366,0.2365,0.2359,0.238,0.2384,0.2399,0.2402,0.2383,0.2415,0.2419,0.2424,0.2426,0.244,0.2439,0.2438,0.2408,0.2452,0.2451,0.245,0.245,0.2337,0.2335,0,0,0,0,0,0,0.2361,0.2365,0.2358,0.236,0.2381,0.2397,0.24,0.2396,0.2416,0.2421,0.2424,0.2429,0.244,0.244,0.2439,0.2382,0.2451,0.2449,0.2449,0.234,0.2337,0.2335,0,0,0,0,0,0,0.2361,0.236,0.2358,0.2364,0.2364,0.2394,0.2389,0.2395,0.2394,0.242,0.2425,0.2417,0.2441,0.2441,0.2414,0.2383,0.2449,0.2448,0.2342,0.2339,0.2336,0.2266,0,0,0,0,0,0,0.2361,0.2359,0.2341,0.2363,0.2364,0.2333,0.2387,0.2394,0.2392,0.2399,0.2414,0.2419,0.2443,0.2416,0.2413,0.2383,0.2447,0.2345,0.2341,0.2337,0.2271,0.2261,0.2252,0,0,0,0,0,0.2361,0.232,0.234,0.2339,0.2342,0.2331,0.2331,0.2361,0.239,0.2371,0.2388,0.2418,0.2388,0.2412,0.241,0.2379,0.2347,0.2342,0.2337,0.2276,0.2263,0.2252,0,0,0,0,0,0,0.2292,0.2323,0.2346,0.2311,0.2318,0.2342,0.2319,0.2347,0.2344,0.235,0.2386,0.2389,0.2357,0.2366,0.2393,0.2331,0.2372,0.2367,0.2326,0.2315,0.2305,0.2302,0.2446,0,0,0,0,0,0.2274,0.2263,0.229,0.2257,0.2259,0.2289,0.2285,0.2307,0.2315,0.2318,0.2333,0.2338,0.233,0.2323,0.2317,0.2274,0.2277,0.2251,0.2241,0.2233,0.2227,0.2204,0.2192,0.2318,0.2318,0.2318,0,0,0.2234,0.2249,0.224,0.2243,0.2251,0.2238,0.229,0.2274,0.2264,0.2315,0.229,0.2302,0.231,0.2275,0.226,0.2281,0.2194,0.2227,0.222,0.2218,0.2197,0.2185,0.2175,0.2315,0.2315,0.2316,0,0,0.2154,0.2166,0.2139,0.2146,0.2158,0.2178,0.2172,0.2192,0.2201,0.2178,0.2215,0.2204,0.2189,0.2193,0.2193,0.2117,0.2145,0.2114,0.2062,0.2039,0.2029,0.2021,0.1991,0.1981,0.2108,0.2108,0.2108,0,0.2102,0.2085,0.2121,0.2102,0.2102,0.215,0.2122,0.2127,0.2136,0.2134,0.2158,0.2141,0.215,0.2115,0.2097,0.2096,0.2089,0.2111,0.2028,0.202,0.2012,0.1985,0.1974,0.2104,0.2105,0.2105,0.2105,0,0.202,0.2008,0.1984,0.1993,0.1991,0.1967,0.1998,0.1992,0.2015,0.2032,0.2007,0.202,0.2017,0.2011,0.2033,0.198,0.1993,0.2022,0.2063,0.1996,0.197,0.196,0.2099,0.21,0.2101,0.2102,0,0,0.1895,0.1925,0.1916,0.192,0.1938,0.1928,0.1908,0.1906,0.1899,0.1904,0.1886,0.1873,0.1901,0.1901,0.1924,0.1904,0.1841,0.1936,0.1937,0.1916,0.1781,0.1757,0.1744,0.1861,0.1859,0.1857,0.178,0,0.1818,0.1784,0.1817,0.1776,0.1764,0.181,0.1792,0.18,0.1816,0.1808,0.1825,0.1815,0.1853,0.1853,0.1836,0.1852,0.1814,0.1859,0.1842,0.1841,0.1836,0.1731,0.1706,0.1631,0.177,0.1768,0.1767,0,0.1723,0.1725,0.1683,0.1704,0.1701,0.1683,0.1685,0.1677,0.1687,0.17,0.1701,0.173,0.171,0.1752,0.1724,0.1754,0.1749,0.1756,0.1754,0.1752,0.1798,0.1723,0.1609,0.1596,0.1752,0.1754,0.1755,0,0.1633,0.1626,0.16,0.1603,0.1627,0.1613,0.1623,0.1635,0.1632,0.1633,0.1632,0.163,0.1628,0.1626,0.1653,0.1682,0.162,0.1666,0.1629,0.1628,0.1611,0.1611,0.1491,0.1613,0.1613,0.1613,0.1613,0,0.1542,0.1514,0.156,0.1544,0.1514,0.1551,0.152,0.1534,0.1545,0.1532,0.1572,0.1558,0.1597,0.1586,0.1608,0.158,0.158,0.1588,0.1594,0.1583,0.1581,0.1578,0.1583,0.161,0.1611,0.1611,0.1612,0,0.1435,0.1465,0.144,0.1466,0.1471,0.1448,0.1469,0.1455,0.1475,0.1457,0.1455,0.1485,0.1475,0.1503,0.1497,0.1512,0.1471,0.1486,0.1467,0.1471,0.1432,0.1434,0.1303,0.1287,0.1421,0.1419,0.1418,0,0.1374,0.1354,0.1378,0.1373,0.138,0.1371,0.1369,0.1405,0.1401,0.1412,0.1395,0.1389,0.1386,0.1368,0.1388,0.1384,0.1398,0.1353,0.1397,0.1387,0.1394,0.1394,0.1391,0.1342,0.134,0.1339,0.1338,0,0.1261,0.1277,0.1273,0.1274,0.1271,0.1273,0.1278,0.1271,0.131,0.1303,0.1295,0.1292,0.1288,0.128,0.1281,0.1289,0.1319,0.1325,0.1315,0.1303,0.1292,0.1295,0.1439,0.1326,0.1328,0.1328,0.1329,0.1329,0.1174,0.1158,0.1173,0.1167,0.1175,0.1179,0.1166,0.1185,0.1179,0.1178,0.1201,0.1187,0.1198,0.1202,0.1207,0.1196,0.1217,0.1204,0.12,0.1196,0.1188,0.1296,0.1197,0.1197,0.1198,0.1198,0.1198,0,0.1061,0.1074,0.1068,0.1074,0.1069,0.1101,0.1109,0.1102,0.109,0.1098,0.1095,0.1085,0.1078,0.1099,0.1095,0.1082,0.1096,0.108,0.108,0.1081,0.1171,0.1178,0.1069,0.1069,0.1069,0.1069,0.1069,0.1069,0.1002,0.0976,0.0994,0.0973,0.0986,0.0974,0.0975,0.0978,0.0985,0.0972,0.0968,0.0982,0.0995,0.0993,0.0988,0.0994,0.099,0.0968,0.0979,0.1062,0.1075,0.1086,0.1093,0.0968,0.0968,0.0889,0.0888,0.0888]}]]